LiveATC.Net - Listen to live air traffic control over the Internet!


ICAO: RCTP  IATA: TPE   Airport: Taiwan Taoyuan International Airport
City: Taipei
Country: Taiwan   Continent: Asia
RCTP METAR Weather: RCTP 181130Z 05019KT 9999 FEW012 BKN080 BKN180 20/10 Q1016 WS R05L NOSIG RMK A3003
RCTP Flight Activity (FlightAware)

RCTP Approach
Feed Status: DOWN
Last heard on: 2021-04-16 15:14:06 (1 days 20 hours 53 minutes ago)
Archive Access: RCTP Approach
FacilityFrequency
Emergency/Guard121.500
Taipei Approach125.100
Taipei Approach125.600
Taipei Approach128.500

RCTP Tower
Feed Status: DOWN
Last heard on: 2021-04-16 15:14:06 (1 days 20 hours 53 minutes ago)
Archive Access: RCTP Tower
FacilityFrequency
Taipei Tower118.700

NOTICE

Unauthorized use prohibited. See LiveATC.net Terms of Service


Airport/ARTCC Code
Frequency Search
(e.g., 124.400, 128.75)
Site-wide search
 


Browse Feeds
Top 50 Feeds
HF Oceanic Feeds
Coverage Map
Bad Weather Areas

LiveATC FAQ
Offer LiveATC feed
Contact LiveATC.net
Press Inquiries

LiveATC on iPhone
LiveATC on Android

Windows Phone
Windows 8/10

LiveATC Mobile
(Mobile browser)

ATC Audio Archives
Interesting Recordings

LiveATC Forums


Home Page
About LiveATC.net
Make a Donation
Terms of Use
Privacy Policy

Canadian Air Freqs

AIRMETs/SIGMETs

FAA Airport Status
Nat'l Airspace Status
Arrival Demand Charts


Server Software By:
Icecast.org
Liquidsoap